Location: Beaver Brook Station
(42.3793°N, 71.2203°W)
Time: 01:15:44
(UTC+00:00)

NOSS 3-3 (A) - Pass Details

Date: 29 October 2020
Orbit: 819 x 1393 km, 63.4° (Epoch: 03 December)

Event Time Altitude Azimuth Distance (km) Brightness Sun altitude
Rises 23:25:03 0° 223° (SW) 3,382 7.5 -19.7°
Reaches altitude 10° 23:27:25 10° 226° (SW) 2,488 6.8 -20.1°
Maximum altitude 23:33:07 68° 309° (NW) 993 4.1 -21.1°
Enters shadow 23:38:33 15° 31° (NNE) 2,430 5.8 -22.2°
